Location: ????????
(55.6189°N, 38.3031°E)
Time: 02:11:34
(UTC+00:00)

Cosmos 2333 - Pass Details

Date: 15 November 2019
Orbit: 828 x 867 km, 70.9° (Epoch: 14 December)

Event Time Altitude Azimuth Distance (km) Brightness Sun altitude
Exits shadow 04:01:47 - 324° (NW) 2,998 6.6 -8.2°
Reaches altitude 10° 04:03:04 10° 323° (NW) 2,514 6.2 -8.1°
Maximum altitude 04:08:49 70° 241° (WSW) 922 4.3 -7.3°
Drops below altitude 10° 04:14:34 10° 159° (SSE) 2,509 7.4 -6.6°
Sets 04:17:02 0° 157° (SSE) 3,442 8.2 -6.3°
